Regional Weather Roundup
Issued by NWS Burlington, VT

Home | Current Version | Previous Version | Text Only | Print | Product List | Glossary On
Versions: 1 2 3 4 5 6 7 8 9 10 11 12 13 14 15 16 17 18 19 20 21 22 23 24 25 26 27 28 29 30 31 32 33 34 35 36 37 38 39 40 41 42 43 44 45 46 47 48 49 50
000
ASUS41 KBTV 201910
RWRBTV
VERMONT REGIONAL WEATHER ROUNDUP
NATIONAL WEATHER SERVICE BURLINGTON VT
300 PM EDT SUN APR 20 2014

NOTE: "FAIR" INDICATES FEW OR NO CLOUDS BELOW 12,000 FEET WITH NO
SIGNIFICANT WEATHER AND/OR OBSTRUCTIONS TO VISIBILITY.

* THESE REPORTS ARE NOT UNDER NWS QUALITY CONTROL AND/OR DO NOT
  REPORT WEATHER SUCH AS PRECIPITATION AND FOG.

VTZ001>019-202000-
_____VERMONT_____


CITY           SKY/WX    TMP DP  RH WIND       PRES   REMARKS
BURLINGTON     MOCLDY    58  16  19 S8G17     30.36F
MONTPELIER     PTCLDY    57  10  15 S9        30.39F
MORRISVILLE    PTCLDY    58   7  13 VRB7      30.36F
ST. JOHNSBURY*   N/A     58   9  14 MISG      30.34F
LYNDONVILLE*   FAIR      56  -3   8 SE6       30.37F
MIDDLEBURY*    FAIR      58  19  21 S7        30.37F
RUTLAND*       PTCLDY    59  16  18 E6        30.36F
SPRINGFIELD    CLEAR     59  11  15 W5        30.38F
HIGHGATE*      MOCLDY    58  15  18 W6        30.36F
NEWPORT*       FAIR      57  -1   9 SW8       30.35F
BENNINGTON     PTCLDY    61  14  16 SE8       30.36F

_____LAKE CHAMPLAIN_____


CITY           SKY/WX    TMP DP  RH WIND       PRES   REMARKS
COLCHESTER RF*   N/A     50  19  29 S15         N/A
DIAMOND ISL*     N/A     54  19  26 SE10        N/A

$$

NYZ007-026>031-035-052-083-202000-
_____NORTHERN NEW YORK_____


CITY           SKY/WX    TMP DP  RH WIND       PRES   REMARKS
PLATTSBURGH    PTCLDY    53  18  25 SE13      30.35F
SARANAC LAKE   PTCLDY    57   8  14 W12       30.30F
MASSENA        PTCLDY    59  21  23 VRB3      30.35F
OGDENSBURG*    CLEAR     63  25  23 S7        30.32F
POTSDAM*       CLEAR     61  25  25 CALM      30.31F
WATERTOWN      PTCLDY    61  25  25 W7        30.32F
FT DRUM        CLEAR     62  22  21 S9        30.32F
ALBANY         MOCLDY    60  16  18 VRB6      30.39F
GLENS FALLS    PTCLDY    62  21  20 VRB5      30.38F

$$
NHZ002-005-011-202000-
_____NEW HAMPSHIRE_____


CITY           SKY/WX    TMP DP  RH WIND       PRES   REMARKS
LEBANON        CLEAR     59   6  12 W5        30.37F
KEENE          CLEAR     59  16  18 SW9G16    30.40F
MT WASHINGTON  MOCLDY    36   3  25 W18         N/A
PLYMOUTH         N/A     58  11  15 SE7       30.37F
WHITEFIELD     CLEAR     59  10  14 SW10      30.34F

$$

_____REGIONAL QUEBEC LOCATIONS_____


CITY           SKY/WX    TMP DP  RH WIND       PRES   REMARKS
MONTREAL       MOCLDY    55  18  22 VRB2      30.36F
QUEBEC CITY    MOCLDY    46  16  29 W6        30.38F
SHERBROOKE     MOCLDY    55  14  19 SW6       30.34F

_____REGIONAL ONTARIO LOCATIONS_____


CITY           SKY/WX    TMP DP  RH WIND       PRES   REMARKS
OTTAWA         PTCLDY    59  19  21 SE9G18    30.32F

______KEY______
VSB  - VISIBILITY IN MILES
WCI  - WIND CHILL INDEX
HX   - HEAT INDEX
$$
NNNN


USA.gov is the U.S. government's official web portal to all federal, state and local government web resources and services.